Regional Weather Roundup
Issued by NWS

Home | Current Version | Previous Version | Graphics & Text | Print | Product List | Glossary On
Versions: 1 2 3 4 5 6 7 8 9 10 11 12 13 14 15 16 17 18 19 20 21 22 23 24 25 26 27 28 29 30 31 32 33 34 35 36 37 38 39 40 41 42 43 44 45 46 47 48 49 50
000
ASUS43 KFSD 212110
RWRSD

WEATHER ROUNDUP FOR SOUTH DAKOTA
NATIONAL WEATHER SERVICE SIOUX FALLS SD
400 PM CDT WED APR 21 2021

NOTE: "FAIR" INDICATES FEW OR NO CLOUDS BELOW 12,000 FEET WITH NO
SIGNIFICANT WEATHER AND/OR OBSTRUCTIONS TO VISIBILITY.


SDZ001>005-009-010-012>017-212200-
NORTHWEST AND NORTH CENTRAL SOUTH DAKOTA

CITY           SKY/WX    TMP DP  RH WIND       PRES   REMARKS
BUFFALO          N/A     50  16  25 W9G17     30.06F
FAITH            N/A     49  17  28 W9G18     30.11F
MOBRIDGE       SUNNY     55  16  21 NW8G21    30.07F
$$

SDZ012>016-024>037-041>051-057-063-072>074-212200-
SOUTHWEST AND SOUTH CENTRAL SOUTH DAKOTA

CITY           SKY/WX    TMP DP  RH WIND       PRES   REMARKS
RAPID CTY ARPT SUNNY     44  16  32 S5        30.12F
PIERRE         SUNNY     50  19  29 W7G17     30.14F
CUSTER         SUNNY     34  17  50 S7        30.06F WCI  28
ELLSWORTH AFB  SUNNY     44  13  28 SE6       30.11F
PHILIP         SUNNY     49  22  34 W6        30.14F
PINE RIDGE     SUNNY     46  16  30 NW5       30.14F
SPEARFISH      FAIR      39  18  41 CALM      30.10F
WINNER         SUNNY     49  15  25 MISG      30.15F
$$

SDZ004>011-016>023-039-040-212200-
NORTHEAST SOUTH DAKOTA

CITY           SKY/WX    TMP DP  RH WIND       PRES   REMARKS
ABERDEEN       MOSUNNY   55  22  27 NW15G22   30.09F
WATERTOWN      CLOUDY    44  23  43 NW14G24   30.09F
BROOKINGS      PTSUNNY   45  21  38 NW16G23   30.11F
SISSETON         N/A     53  21  28 NW17      30.05F
$$

SDZ017-020-022-023-036>040-048>070-212200-
SOUTHEAST SOUTH DAKOTA

CITY           SKY/WX    TMP DP  RH WIND       PRES   REMARKS
SIOUX FALLS    PTSUNNY   46  20  35 NW10G24   30.15F
HURON          MOSUNNY   50  20  30 MISG      30.13F
CHAMBERLAIN    SUNNY     48  18  30 NW8       30.16F
MITCHELL       SUNNY     50  18  28 NW10G20   30.16F
YANKTON        MOSUNNY   47  17  30 NW13      30.18F
$$

ABBREVIATIONS USED IN REMARKS
   TC - TEMPERATURE IN CELSIUS
  WCI - WIND CHILL INDEX
   HX - HEAT INDEX
  VSB - VISIBILITY




USA.gov is the U.S. government's official web portal to all federal, state and local government web resources and services.